Location: Aulnoy
(48.8410°N, 3.0967°E)
Time: 09:53:53
(UTC+00:00)

MINOTAUR 4 R/B - Pass Details

Date: 09 February 2023
Orbit: 448 x 453 km, 98.0° (Epoch: 23 March)

Event Time Altitude Azimuth Distance (km) Brightness Sun altitude
Exits shadow 18:32:56 19° 29° (NNE) 1,136 5.6 -16.0°
Maximum altitude 18:35:09 53° 101° (E) 559 3.9 -16.4°
Drops below altitude 10° 18:38:28 10° 180° (S) 1,575 6.7 -16.9°
Sets 18:40:31 0° 185° (S) 2,442 7.7 -17.2°
